Location: Herksen
(52.4316°N, 6.1319°E)
Time: 10:59:15
(UTC+00:00)

Cosmos 468 Rocket - Pass Details

Date: 15 May 2026
Orbit: 740 x 773 km, 74.0° (Epoch: 6 June)

Event Time Altitude Azimuth Distance (km) Brightness Sun altitude
Exits shadow 22:30:14 22° 204° (SSW) 1,644 5.3 -17.3°
Maximum altitude 22:33:44 90° 71° (ENE) 777 4.0 -17.4°
Drops below altitude 10° 22:39:00 10° 26° (NNE) 2,314 7.2 -17.6°
Sets 22:41:23 0° 26° (NNE) 3,240 8.1 -17.7°
